Location: Unspecified
(54.1780°N, 0.0000°E)
Time: 11:21:33
(UTC+00:00)

Altair - Pass Details

Date: 22 June 2019
Orbit: 1501 x 1683 km, 47.2° (Epoch: 22 July)

Event Time Altitude Azimuth Distance (km) Brightness Sun altitude
Rises 01:02:36 0° 279° (W) 4,827 10.1 -11.3°
Reaches altitude 10° 01:05:52 10° 273° (W) 3,864 9.5 -11.2°
Maximum altitude 01:14:57 43° 207° (SSW) 2,201 7.9 -10.8°
Drops below altitude 10° 01:24:14 10° 141° (SE) 3,939 9.3 -10.4°
Sets 01:27:36 0° 135° (SE) 4,928 9.9 -10.2°
